Location: Unspecified
(40.7945°N, 111.1337°W)
Time: 09:45:43
(UTC-06:00)

Okean 3 - Visible Passes

Search period start: 26 April 2017 00:00
Search period end: 06 May 2017 00:00
Orbit: 577 x 604 km, 82.5° (Epoch: 24 April)

Date Brightness Start Highest point End Pass type
(mag) Time Alt. Az. Time Alt. Az. Time Alt. Az.
26 Apr 5.7 23:55:36 21° N 23:55:36 21° N 23:57:03 10° N visible
28 Apr 5.6 00:03:32 24° N 00:03:32 24° N 00:05:18 10° N visible
28 Apr 6.0 22:34:55 10° NE 22:34:55 10° NE 22:34:55 10° NE visible
29 Apr 5.6 00:11:26 24° NNW 00:11:26 24° NNW 00:13:25 10° N visible
29 Apr 5.6 22:42:47 15° NE 22:42:47 15° NE 22:43:56 10° NE visible
30 Apr 5.7 00:19:19 22° NW 00:19:19 22° NW 00:21:23 10° NNW visible
30 Apr 5.1 22:50:39 23° NE 22:50:39 23° NE 22:52:38 10° NNE visible
01 May 6.0 00:27:10 17° NW 00:27:10 17° NW 00:29:09 10° NNW visible
01 May 4.5 22:58:29 34° NE 22:58:29 34° NE 23:01:08 10° NNE visible
02 May 6.2 00:34:59 12° WNW 00:34:59 12° WNW 00:36:27 10° NW visible
02 May 4.0 23:06:16 52° NNE 23:06:16 52° NNE 23:09:30 10° N visible
03 May 3.8 23:14:01 60° NW 23:14:01 60° NW 23:17:45 10° N visible
04 May 5.3 21:45:13 14° E 21:45:13 14° E 21:47:15 10° NE visible
04 May 4.4 23:21:44 41° W 23:21:53 42° WNW 23:25:52 10° N visible
05 May 4.8 21:52:53 21° E 21:53:10 21° E 21:56:19 10° NE visible
05 May 5.1 23:29:24 26° W 23:30:14 28° WNW 23:33:52 10° NNW visible
